[[{"header":{"parameterUnit":"m.s-1","parameterCategory":2,"la1":30.2991,"la2":30.254,"lo1":-89.0895,"lo2":-89.0444,"dy":0.0017,"dx":0.0017,"nx":28,"ny":28,"refTime":"2023-10-20T21:00:00:Z","depth":"0","parameterNumber":2,"parameterNumberName":"U-component_of_CURRENTS"},"data":[0,0,0,0,0,0,0,0,0,0,0,0,0,0,0,0,0,0,0,0,0,0,0,0,0,0,0,0,0,0,0,0,0,0,0,0,0,0,0,0,0,0,0,0,0,0,0,0,0,0,0,0,0,0,0,0,0,0,0.086,0.0859,0,0.0871,0.0871,0.0872,0.0831,0.0829,0.0827,0.0825,0.0765,0.0766,0.0766,0,0,0,0,0,0,0,0,0,0,0,0,0,0.0937,0.0935,0.086,0.0859,0.0859,0.0871,0.0871,0.0872,0.0831,0.0829,0.0826,0.0824,0.0765,0.0766,0.0766,0,0,0,0,0,0,0,0,0,0,0,0,0,0.0927,0.0935,0.086,0.0834,0.0832,0.087,0.0872,0.0873,0.0831,0.0829,0.0826,0.0823,0.0765,0.0766,0.0766,0.0824,0,0,0.0767,0.0767,0,0,0,0,0,0,0,0,0.0928,0.0925,0.0839,0.0836,0.0833,0.084,0.0876,0.085,0.0832,0.0839,0.0825,0.0822,0.0781,0.078,0.08,0.0821,0.0818,0.0767,0.0767,0.0767,0.0767,0,0,0,0,0,0,0,0.0928,0.0925,0.0871,0.0838,0.0835,0.0868,0.0863,0.0873,0.083,0.0838,0.0833,0.0825,0.078,0.08,0.0797,0.0817,0.0767,0.0767,0.0767,0.0767,0.0905,0.0908,0,0,0,0,0,0,0.0909,0.0925,0.0871,0.0871,0.0867,0.0868,0.0863,0.0847,0.0831,0.0825,0.0827,0.0822,0.0801,0.0797,0.0795,0.0869,0.0767,0.0767,0.0767,0.0901,0.0905,0.0909,0,0,0,0,0,0,0.0911,0.0904,0.087,0.0893,0.089,0.0868,0.0851,0.0848,0.0856,0.0822,0.0815,0.0834,0.0798,0.0795,0.0826,0.0865,0.0767,0.0767,0.0897,0.0902,0.0907,0.1011,0,0,0,0,0,0,0.0913,0.0904,0.0912,0.0892,0.0888,0.0891,0.0853,0.085,0.0851,0.0846,0.0827,0.0819,0.0796,0.0827,0.0827,0.0864,0.0768,0.0892,0.0899,0.0906,0.1003,0.1019,0.1033,0,0,0,0,0,0.0915,0.0923,0.0913,0.0907,0.089,0.0892,0.0895,0.0875,0.0854,0.087,0.0874,0.0819,0.0868,0.0831,0.0829,0.0867,0.0889,0.0897,0.0905,0.0997,0.1016,0.1033,0,0,0,0,0,0,0.0953,0.0918,0.0906,0.0901,0.0897,0.0882,0.0899,0.0883,0.0903,0.0895,0.0866,0.0861,0.0901,0.0885,0.0844,0.0932,0.087,0.0878,0.094,0.0958,0.0972,0.0969,0.0768,0,0,0,0,0,0.0967,0.0974,0.0939,0.0945,0.0938,0.0925,0.093,0.0909,0.091,0.0914,0.0907,0.0914,0.0942,0.0946,0.0959,0.101,0.1033,0.1037,0.1052,0.1064,0.1065,0.1169,0.1193,0.0935,0.0935,0.0935,0,0,0.0979,0.097,0.0969,0.0957,0.0954,0.0974,0.0922,0.0923,0.0952,0.0907,0.0959,0.0961,0.0968,0.1026,0.1042,0.101,0.1157,0.1074,0.1084,0.1079,0.1179,0.1204,0.1226,0.094,0.0939,0.0939,0,0,0.1027,0.1001,0.1028,0.1028,0.102,0.1014,0.1013,0.1,0.1003,0.1052,0.1036,0.1071,0.1102,0.1125,0.1139,0.125,0.1231,0.1249,0.1319,0.142,0.1442,0.1461,0.1545,0.1571,0.1257,0.1257,0.1258,0,0.105,0.1068,0.104,0.107,0.1073,0.1034,0.106,0.1077,0.1084,0.1099,0.1076,0.1162,0.1157,0.1242,0.128,0.1281,0.1331,0.1244,0.1439,0.1458,0.1476,0.1557,0.1584,0.1263,0.1263,0.1262,0.1262,0,0.1116,0.1134,0.1148,0.1176,0.1183,0.1193,0.1186,0.1209,0.1205,0.1214,0.128,0.1303,0.135,0.1363,0.1353,0.1477,0.1471,0.1444,0.1387,0.1508,0.1587,0.1613,0.1272,0.127,0.1268,0.1267,0,0,0.1155,0.1187,0.1194,0.1211,0.1226,0.1228,0.1286,0.1314,0.1348,0.1377,0.1447,0.1503,0.1498,0.1517,0.1518,0.1594,0.1767,0.1576,0.1579,0.1649,0.1998,0.2046,0.2079,0.178,0.1785,0.1789,0.201,0,0.1217,0.128,0.1283,0.134,0.1359,0.1345,0.1398,0.142,0.1444,0.151,0.1539,0.1602,0.1565,0.1595,0.1677,0.1729,0.1838,0.1709,0.1879,0.1884,0.1904,0.2112,0.2153,0.2359,0.2036,0.204,0.2043,0,0.1283,0.1315,0.1371,0.1397,0.1401,0.1433,0.1477,0.1521,0.1595,0.1616,0.1687,0.1709,0.1821,0.1779,0.1962,0.1884,0.1965,0.2007,0.2016,0.2037,0.1982,0.2184,0.2418,0.2344,0.2083,0.208,0.2077,0,0.1313,0.1368,0.141,0.1421,0.1458,0.1477,0.1496,0.155,0.1585,0.1694,0.1747,0.1857,0.1934,0.2044,0.2136,0.2068,0.2347,0.2263,0.2393,0.2395,0.245,0.2451,0.2622,0.2446,0.2446,0.2445,0.2444,0,0.1365,0.1393,0.1421,0.1442,0.1473,0.1495,0.1537,0.1575,0.166,0.1723,0.1804,0.1902,0.201,0.2163,0.2224,0.2416,0.2438,0.2461,0.2485,0.2491,0.2492,0.2439,0.238,0.2453,0.2451,0.245,0.2448,0,0.1382,0.1409,0.1449,0.1486,0.1485,0.1506,0.1529,0.1566,0.1658,0.1762,0.1809,0.1981,0.2181,0.2307,0.2507,0.2548,0.2666,0.2767,0.2762,0.2781,0.2776,0.2722,0.2781,0.2707,0.2936,0.2939,0.2942,0,0.1393,0.1425,0.1458,0.1455,0.1462,0.1481,0.1484,0.1551,0.1599,0.1804,0.1867,0.211,0.227,0.2601,0.2761,0.2956,0.2821,0.308,0.2956,0.2847,0.2804,0.2593,0.2508,0.3079,0.3082,0.3085,0.3087,0,0.1411,0.1426,0.1445,0.1442,0.1439,0.1444,0.1468,0.1504,0.1616,0.1732,0.1928,0.2088,0.246,0.2692,0.2979,0.3104,0.2961,0.3141,0.3057,0.2982,0.2741,0.2657,0.2828,0.3112,0.3109,0.3108,0.3106,0.3105,0.1406,0.1414,0.1429,0.1423,0.1411,0.1411,0.1399,0.146,0.1551,0.1726,0.191,0.2164,0.2583,0.2999,0.3087,0.331,0.314,0.327,0.3233,0.3039,0.2918,0.3139,0.3416,0.3415,0.3415,0.3414,0.3414,0,0.1398,0.1404,0.1399,0.1385,0.1354,0.1368,0.1385,0.1384,0.1464,0.1699,0.1875,0.2369,0.2713,0.3039,0.3427,0.3402,0.3217,0.3343,0.3064,0.2986,0.326,0.3214,0.3428,0.3428,0.3428,0.3428,0.3428,0.3428,0.1394,0.1392,0.1398,0.1343,0.132,0.1264,0.1266,0.1295,0.1422,0.1688,0.1975,0.2222,0.2727,0.326,0.3471,0.3442,0.3158,0.3094,0.2944,0.3158,0.3144,0.3132,0.3074,0.3255,0.3255,0.2584,0.2579,0.2576]},{"header":{"parameterUnit":"m.s-1","parameterCategory":2,"la1":30.2991,"la2":30.254,"lo1":-89.0895,"lo2":-89.0444,"dy":0.0017,"dx":0.0017,"nx":28,"ny":28,"refTime":"2023-10-20T21:00:00:Z","depth":"0","parameterNumber":3,"parameterNumberName":"V-component_of_CURRENTS"},"data":[0,0,0,0,0,0,0,0,0,0,0,0,0,0,0,0,0,0,0,0,0,0,0,0,0,0,0,0,0,0,0,0,0,0,0,0,0,0,0,0,0,0,0,0,0,0,0,0,0,0,0,0,0,0,0,0,0,0,-0.1038,-0.1039,0,-0.107,-0.1069,-0.1069,-0.1055,-0.1055,-0.1055,-0.1055,-0.0991,-0.0989,-0.0987,0,0,0,0,0,0,0,0,0,0,0,0,0,-0.098,-0.098,-0.1038,-0.1039,-0.1041,-0.107,-0.1069,-0.1069,-0.1055,-0.1055,-0.1055,-0.1056,-0.0992,-0.0989,-0.0987,0,0,0,0,0,0,0,0,0,0,0,0,0,-0.0998,-0.098,-0.1038,-0.1044,-0.1046,-0.107,-0.1069,-0.1069,-0.1055,-0.1055,-0.1055,-0.1056,-0.0992,-0.099,-0.0987,-0.0967,0,0,-0.0979,-0.0978,0,0,0,0,0,0,0,0,-0.0997,-0.0999,-0.1042,-0.1044,-0.1046,-0.1067,-0.1026,-0.1033,-0.1055,-0.1042,-0.1055,-0.1056,-0.1014,-0.1009,-0.1003,-0.0964,-0.0961,-0.0978,-0.0977,-0.0976,-0.0975,0,0,0,0,0,0,0,-0.0996,-0.0998,-0.1041,-0.1044,-0.1046,-0.1051,-0.1053,-0.1027,-0.1017,-0.1043,-0.1044,-0.1063,-0.1013,-0.1005,-0.1001,-0.096,-0.0979,-0.0976,-0.0974,-0.0973,-0.0889,-0.0888,0,0,0,0,0,0,-0.101,-0.0997,-0.104,-0.1043,-0.1032,-0.1053,-0.1054,-0.1052,-0.102,-0.1018,-0.1063,-0.1062,-0.101,-0.1004,-0.0998,-0.0943,-0.0976,-0.0973,-0.0972,-0.089,-0.0889,-0.0888,0,0,0,0,0,0,-0.1008,-0.1013,-0.1039,-0.1029,-0.1034,-0.1054,-0.1052,-0.1053,-0.1055,-0.1038,-0.1032,-0.1067,-0.101,-0.1002,-0.0947,-0.0942,-0.0972,-0.0969,-0.089,-0.0889,-0.0888,-0.0851,0,0,0,0,0,0,-0.1006,-0.1011,-0.1006,-0.103,-0.1036,-0.1056,-0.1053,-0.1054,-0.1071,-0.107,-0.1039,-0.1033,-0.1009,-0.0951,-0.0944,-0.0938,-0.0967,-0.0891,-0.089,-0.0889,-0.0853,-0.0849,-0.0846,0,0,0,0,0,-0.1003,-0.0994,-0.1005,-0.1011,-0.103,-0.1057,-0.1059,-0.1068,-0.1071,-0.1069,-0.1024,-0.1034,-0.0941,-0.0947,-0.0939,-0.0933,-0.0892,-0.089,-0.0889,-0.0855,-0.085,-0.0846,0,0,0,0,0,0,-0.096,-0.0994,-0.1006,-0.1005,-0.1035,-0.1058,-0.1062,-0.1074,-0.1041,-0.1033,-0.1007,-0.0996,-0.0952,-0.0946,-0.0955,-0.0908,-0.0926,-0.0923,-0.0903,-0.0898,-0.0895,-0.0854,-0.0965,0,0,0,0,0,-0.0953,-0.0958,-0.0996,-0.0999,-0.1015,-0.1041,-0.1053,-0.1063,-0.105,-0.1039,-0.1017,-0.0985,-0.0941,-0.0921,-0.0891,-0.0855,-0.082,-0.0854,-0.085,-0.0847,-0.081,-0.0751,-0.0737,-0.0884,-0.0884,-0.0884,0,0,-0.0941,-0.0961,-0.0965,-0.0992,-0.1013,-0.1008,-0.1045,-0.1067,-0.1045,-0.1034,-0.0985,-0.0969,-0.0928,-0.088,-0.0864,-0.0873,-0.079,-0.0845,-0.0842,-0.0806,-0.0748,-0.0733,-0.072,-0.0883,-0.0883,-0.0883,0,0,-0.0915,-0.0937,-0.093,-0.0943,-0.0983,-0.0997,-0.1008,-0.1034,-0.1029,-0.0993,-0.097,-0.0936,-0.0895,-0.0851,-0.0823,-0.0782,-0.0771,-0.0802,-0.0745,-0.0689,-0.0675,-0.0663,-0.0606,-0.0589,-0.0801,-0.0801,-0.0801,0,-0.0895,-0.0888,-0.0934,-0.0921,-0.0921,-0.0988,-0.0965,-0.097,-0.0969,-0.0932,-0.0973,-0.0864,-0.0869,-0.0757,-0.076,-0.0771,-0.0734,-0.0765,-0.0681,-0.0668,-0.0656,-0.06,-0.0582,-0.0799,-0.0799,-0.0799,-0.0799,0,-0.0857,-0.0848,-0.0849,-0.0846,-0.0847,-0.0853,-0.087,-0.0862,-0.0878,-0.0866,-0.0791,-0.0781,-0.07,-0.0733,-0.0736,-0.0651,-0.0652,-0.0682,-0.0687,-0.0638,-0.0584,-0.0565,-0.0796,-0.0797,-0.0797,-0.0798,0,0,-0.0807,-0.0819,-0.0814,-0.079,-0.0807,-0.0799,-0.0762,-0.073,-0.0644,-0.0688,-0.0561,-0.0573,-0.0569,-0.0537,-0.0549,-0.0536,-0.0464,-0.058,-0.0578,-0.0513,-0.0325,-0.0377,-0.0362,-0.0479,-0.0476,-0.0473,-0.0322,0,-0.0762,-0.0728,-0.0734,-0.0676,-0.0658,-0.0669,-0.0597,-0.0566,-0.0539,-0.0434,-0.0455,-0.0344,-0.0492,-0.0423,-0.0443,-0.0434,-0.0411,-0.05,-0.0389,-0.0385,-0.0429,-0.0341,-0.0302,-0.0169,-0.0304,-0.0301,-0.0298,0,-0.0701,-0.0691,-0.0639,-0.0563,-0.0546,-0.05,-0.0375,-0.0315,-0.0202,-0.0157,-0.0095,-0.0087,-0.0048,-0.0178,-0.0167,-0.0215,-0.026,-0.0293,-0.0288,-0.0327,-0.0402,-0.0239,-0.013,-0.0319,-0.027,-0.0272,-0.0274,0,-0.0639,-0.0602,-0.056,-0.0544,-0.0476,-0.0412,-0.0348,-0.0225,-0.0092,0.005,0.0185,0.0189,0.0266,0.0179,0.0039,-0.0028,0.0052,-0.0037,-0.0117,-0.0121,-0.0058,-0.0063,-0.0102,0.0001,0.0001,0.0001,0.0,0,-0.0574,-0.0524,-0.0525,-0.0494,-0.0374,-0.0328,-0.0121,-0.0055,0.0162,0.0385,0.0348,0.0525,0.0358,0.0356,0.018,0.0091,0.0165,-0.0061,-0.007,-0.0049,-0.0055,-0.0195,-0.0332,0.0006,0.0005,0.0004,0.0003,0,-0.049,-0.0506,-0.0445,-0.0385,-0.0347,-0.0247,0.0007,0.0213,0.0364,0.0668,0.074,0.0825,0.0813,0.0625,0.0528,0.0324,0.0112,0.0165,0.0189,0.0177,-0.012,-0.0255,-0.0272,-0.0393,0.0131,0.0131,0.0131,0,-0.0437,-0.0412,-0.0373,-0.0313,-0.028,-0.0107,0.0084,0.0289,0.0547,0.0859,0.1049,0.1114,0.1194,0.0999,0.0656,0.0399,0.0174,0.027,0.0124,-0.0092,-0.0247,-0.0353,-0.0464,0.0235,0.0236,0.0237,0.0237,0,-0.0327,-0.0336,-0.0303,-0.0191,-0.0038,0.0205,0.0481,0.0699,0.1012,0.1228,0.1516,0.1584,0.1401,0.1166,0.0783,0.0563,0.0116,0.0272,0.0076,-0.0138,-0.0271,-0.0406,0.0075,0.0242,0.0242,0.0241,0.0241,0.0241,-0.0232,-0.0199,-0.0153,-0.0018,0.018,0.0544,0.0781,0.1078,0.1444,0.1785,0.182,0.1933,0.1616,0.1087,0.0755,0.0192,0.0123,0.0026,-0.0102,-0.0174,-0.0354,0.0117,0.0229,0.0229,0.0228,0.0228,0.0227,0,-0.0067,-0.0036,0.0058,0.0272,0.058,0.0658,0.1097,0.1345,0.1722,0.1933,0.2101,0.2063,0.159,0.1081,0.0334,-0.0087,-0.0279,-0.0314,-0.0437,-0.0526,-0.004,-0.0105,-0.0093,-0.0093,-0.0093,-0.0092,-0.0092,-0.0092,0.0028,0.0143,0.0187,0.0641,0.0832,0.1271,0.153,0.1761,0.1949,0.2187,0.2269,0.232,0.2046,0.0767,-0.0162,-0.0428,-0.0799,-0.0824,-0.1047,-0.0714,-0.0692,-0.0671,-0.0763,-0.0889,-0.089,-0.146,-0.1466,-0.147]}],[{"header":{"parameterUnit":"m.s-1","parameterCategory":2,"la1":30.2991,"la2":30.254,"lo1":-89.0895,"lo2":-89.0444,"dy":0.0017,"dx":0.0017,"nx":28,"ny":28,"refTime":"2023-10-20T21:00:00:Z","depth":"2","parameterNumber":2,"parameterNumberName":"U-component_of_CURRENTS"},"data":[0,0,0,0,0,0,0,0,0,0,0,0,0,0,0,0,0,0,0,0,0,0,0,0,0,0,0,0,0,0,0,0,0,0,0,0,0,0,0,0,0,0,0,0,0,0,0,0,0,0,0,0,0,0,0,0,0,0,0.1604,0.1606,0,0.163,0.1628,0.1627,0.15,0.1498,0.1496,0.1495,0.1433,0.1433,0.1433,0,0,0,0,0,0,0,0,0,0,0,0,0,0.1539,0.1539,0.1604,0.1607,0.1609,0.163,0.1628,0.1627,0.15,0.1498,0.1496,0.1494,0.1433,0.1433,0.1433,0,0,0,0,0,0,0,0,0,0,0,0,0,0.1546,0.1538,0.1604,0.1564,0.1562,0.1631,0.1628,0.1626,0.15,0.1498,0.1495,0.1493,0.1433,0.1433,0.1433,0.1484,0,0,0.1433,0.1433,0,0,0,0,0,0,0,0,0.1545,0.1545,0.1568,0.1567,0.1566,0.1578,0.1584,0.1582,0.1501,0.1501,0.1495,0.1492,0.149,0.1485,0.1466,0.1481,0.1478,0.1433,0.1433,0.1433,0.1433,0,0,0,0,0,0,0,0.1545,0.1545,0.1592,0.1571,0.157,0.1579,0.1573,0.1582,0.1491,0.1501,0.1497,0.1535,0.1485,0.1466,0.1463,0.1477,0.1433,0.1433,0.1433,0.1433,0.1459,0.146,0,0,0,0,0,0,0.1583,0.1544,0.1592,0.1595,0.1573,0.1583,0.1576,0.1559,0.1493,0.1487,0.1537,0.153,0.1467,0.1464,0.1461,0.148,0.1433,0.1433,0.1433,0.1458,0.1459,0.146,0,0,0,0,0,0,0.158,0.1585,0.1591,0.1591,0.1595,0.1589,0.1569,0.1561,0.1534,0.1526,0.1513,0.1521,0.1465,0.1461,0.145,0.1478,0.1433,0.1433,0.1457,0.1458,0.146,0.1542,0,0,0,0,0,0,0.1577,0.1582,0.1583,0.1591,0.1597,0.1646,0.1574,0.1564,0.1573,0.1561,0.1508,0.15,0.1463,0.1451,0.145,0.1477,0.1432,0.1456,0.1458,0.1459,0.1538,0.1546,0.1552,0,0,0,0,0,0.1574,0.1586,0.158,0.1589,0.1595,0.1651,0.1651,0.1626,0.1575,0.1582,0.1524,0.1501,0.1459,0.1452,0.1451,0.1478,0.1456,0.1457,0.1459,0.1535,0.1544,0.1552,0,0,0,0,0,0,0.1545,0.1577,0.157,0.1585,0.163,0.1637,0.1641,0.1636,0.1594,0.1563,0.1516,0.1506,0.1508,0.1484,0.1477,0.1487,0.1453,0.1455,0.1511,0.1519,0.1526,0.1537,0.1432,0,0,0,0,0,0.1552,0.1559,0.1609,0.162,0.1633,0.1636,0.1654,0.165,0.1633,0.1609,0.1567,0.1526,0.152,0.1509,0.1495,0.151,0.1542,0.1524,0.1531,0.1537,0.1544,0.1639,0.1656,0.1465,0.1465,0.1465,0,0,0.1543,0.1569,0.1569,0.1618,0.1618,0.1646,0.163,0.1662,0.1674,0.1616,0.1571,0.1556,0.153,0.1533,0.1533,0.1512,0.1607,0.1539,0.1544,0.1548,0.1643,0.1662,0.1679,0.1467,0.1466,0.1466,0,0,0.155,0.1544,0.1559,0.159,0.1647,0.1662,0.1679,0.1689,0.1671,0.1677,0.1628,0.1629,0.1597,0.159,0.1585,0.1629,0.1647,0.1619,0.1661,0.1754,0.1771,0.1787,0.1859,0.1881,0.1617,0.1617,0.1617,0,0.1547,0.1563,0.1581,0.1607,0.1636,0.1665,0.1694,0.1698,0.1703,0.1711,0.1668,0.1654,0.1628,0.1665,0.1659,0.1649,0.1697,0.1634,0.1767,0.1783,0.1798,0.1868,0.1891,0.1621,0.1621,0.1621,0.162,0,0.1564,0.1581,0.1589,0.1618,0.1651,0.1689,0.1721,0.1732,0.172,0.1738,0.1767,0.174,0.1742,0.1735,0.1701,0.1791,0.1791,0.1776,0.1755,0.1823,0.1892,0.1914,0.1627,0.1626,0.1625,0.1624,0,0,0.1557,0.1597,0.1603,0.1614,0.1664,0.1694,0.1718,0.178,0.1811,0.1809,0.1859,0.184,0.185,0.1844,0.183,0.1885,0.202,0.1868,0.1871,0.1955,0.2228,0.2146,0.2162,0.2041,0.2045,0.2048,0.2238,0,0.1575,0.1619,0.1644,0.1678,0.1694,0.1726,0.1757,0.1808,0.1843,0.1894,0.1915,0.1951,0.189,0.1909,0.1961,0.2007,0.2081,0.1969,0.2134,0.2139,0.2072,0.2186,0.1973,0.2117,0.2259,0.2263,0.2266,0,0.1596,0.1623,0.1663,0.1709,0.1719,0.1747,0.1813,0.186,0.195,0.1979,0.2036,0.2059,0.2133,0.2079,0.2216,0.2153,0.2199,0.2228,0.2237,0.2146,0.2099,0.2069,0.2152,0.2303,0.23,0.2297,0.2295,0,0.159,0.1641,0.1676,0.1685,0.1741,0.1761,0.1801,0.188,0.1944,0.2054,0.2117,0.2202,0.2265,0.2338,0.2377,0.2322,0.2542,0.2481,0.2458,0.2453,0.2294,0.2267,0.2613,0.2613,0.2613,0.2612,0.2612,0,0.1613,0.1631,0.1668,0.168,0.1718,0.176,0.1835,0.1885,0.201,0.2121,0.2169,0.2276,0.2337,0.245,0.2467,0.2541,0.2631,0.2498,0.2511,0.2313,0.2287,0.2449,0.2427,0.2619,0.2618,0.2616,0.2615,0,0.1599,0.1633,0.1658,0.1705,0.1715,0.174,0.1835,0.1917,0.2022,0.2177,0.2223,0.2376,0.2517,0.2575,0.2716,0.2659,0.2732,0.2739,0.2487,0.2465,0.2556,0.2536,0.2735,0.2734,0.2733,0.2732,0.2731,0,0.1594,0.1611,0.165,0.1663,0.168,0.1726,0.1787,0.1903,0.2012,0.2241,0.2336,0.251,0.2612,0.2766,0.2729,0.2768,0.2808,0.2573,0.2409,0.2583,0.2577,0.2558,0.254,0.2243,0.2239,0.2235,0.2232,0,0.1575,0.1594,0.1612,0.1643,0.1687,0.1763,0.1858,0.1939,0.2129,0.2252,0.2471,0.2565,0.268,0.2611,0.2615,0.2595,0.2533,0.2495,0.2812,0.2221,0.2129,0.2119,0.2116,0.2199,0.2203,0.2205,0.2207,0.2208,0.1549,0.1555,0.1595,0.1629,0.1689,0.1812,0.1869,0.1975,0.2134,0.2245,0.2415,0.2431,0.2452,0.233,0.2296,0.2248,0.2398,0.2255,0.2264,0.2277,0.2162,0.2071,0.2109,0.2112,0.2114,0.2116,0.2118,0,0.1533,0.156,0.1582,0.1652,0.1746,0.1802,0.1938,0.1939,0.2054,0.2115,0.2174,0.199,0.1935,0.1986,0.1858,0.1839,0.1785,0.1767,0.1682,0.1718,0.1749,0.1602,0.1404,0.1402,0.14,0.1398,0,0,0.153,0.1558,0.1588,0.1714,0.1785,0.1903,0.1988,0.1889,0.1875,0.1775,0.1737,0.1745,0.1904,0.1602,0.1581,0.1489,0.1583,0.1425,0.2003,0.194,0.1968,0.2044,0.1861,0,0,0,0,0]},{"header":{"parameterUnit":"m.s-1","parameterCategory":2,"la1":30.2991,"la2":30.254,"lo1":-89.0895,"lo2":-89.0444,"dy":0.0017,"dx":0.0017,"nx":28,"ny":28,"refTime":"2023-10-20T21:00:00:Z","depth":"2","parameterNumber":3,"parameterNumberName":"V-component_of_CURRENTS"},"data":[0,0,0,0,0,0,0,0,0,0,0,0,0,0,0,0,0,0,0,0,0,0,0,0,0,0,0,0,0,0,0,0,0,0,0,0,0,0,0,0,0,0,0,0,0,0,0,0,0,0,0,0,0,0,0,0,0,0,-0.0539,-0.0539,0,-0.0562,-0.0563,-0.0563,-0.0594,-0.0594,-0.0595,-0.0595,-0.0524,-0.0522,-0.052,0,0,0,0,0,0,0,0,0,0,0,0,0,-0.0485,-0.0486,-0.0539,-0.0539,-0.0539,-0.0562,-0.0563,-0.0563,-0.0594,-0.0594,-0.0595,-0.0595,-0.0525,-0.0522,-0.0519,0,0,0,0,0,0,0,0,0,0,0,0,0,-0.051,-0.0486,-0.0539,-0.0556,-0.0557,-0.0562,-0.0563,-0.0563,-0.0594,-0.0594,-0.0595,-0.0595,-0.0525,-0.0522,-0.0519,-0.0489,0,0,-0.0509,-0.0508,0,0,0,0,0,0,0,0,-0.0509,-0.0512,-0.0553,-0.0554,-0.0556,-0.0574,-0.0518,-0.0533,-0.0594,-0.0582,-0.0595,-0.0596,-0.053,-0.0526,-0.0534,-0.0486,-0.0483,-0.0509,-0.0507,-0.0505,-0.0504,0,0,0,0,0,0,0,-0.0507,-0.0511,-0.055,-0.0553,-0.0555,-0.055,-0.0554,-0.0521,-0.0553,-0.0583,-0.0585,-0.0584,-0.0531,-0.0537,-0.0532,-0.0482,-0.0509,-0.0506,-0.0504,-0.0503,-0.0477,-0.0478,0,0,0,0,0,0,-0.0502,-0.051,-0.0549,-0.0551,-0.0531,-0.055,-0.0556,-0.0569,-0.0555,-0.0554,-0.0584,-0.0585,-0.0543,-0.0536,-0.053,-0.0511,-0.0505,-0.0502,-0.05,-0.0476,-0.0477,-0.0478,0,0,0,0,0,0,-0.0501,-0.0505,-0.0548,-0.0528,-0.0533,-0.0551,-0.0566,-0.057,-0.0591,-0.0557,-0.0554,-0.0602,-0.0543,-0.0534,-0.0502,-0.0507,-0.0501,-0.0498,-0.0474,-0.0476,-0.0478,-0.046,0,0,0,0,0,0,-0.0499,-0.0505,-0.0514,-0.0528,-0.0534,-0.0538,-0.0565,-0.057,-0.0587,-0.0591,-0.0571,-0.0564,-0.0543,-0.0507,-0.0499,-0.0503,-0.0495,-0.0472,-0.0475,-0.0477,-0.0459,-0.0461,-0.0463,0,0,0,0,0,-0.0497,-0.0492,-0.0515,-0.0519,-0.0546,-0.0536,-0.0538,-0.0554,-0.0588,-0.058,-0.0578,-0.0566,-0.0519,-0.0504,-0.0495,-0.0497,-0.0471,-0.0474,-0.0477,-0.0458,-0.0461,-0.0463,0,0,0,0,0,0,-0.0486,-0.0495,-0.052,-0.0525,-0.0529,-0.0541,-0.0539,-0.0563,-0.0561,-0.0564,-0.0556,-0.0548,-0.0529,-0.0521,-0.0507,-0.0506,-0.0503,-0.0504,-0.0493,-0.0495,-0.0497,-0.0478,-0.0492,0,0,0,0,0,-0.0487,-0.0481,-0.0497,-0.0504,-0.0507,-0.0534,-0.0538,-0.0544,-0.0544,-0.0548,-0.0559,-0.0558,-0.0533,-0.0519,-0.0504,-0.0482,-0.0482,-0.0491,-0.0493,-0.0495,-0.0478,-0.0477,-0.0477,-0.0488,-0.0488,-0.0488,0,0,-0.0496,-0.0491,-0.0498,-0.0499,-0.0514,-0.0506,-0.0538,-0.0533,-0.0535,-0.0534,-0.0559,-0.0557,-0.0531,-0.0514,-0.0508,-0.0504,-0.05,-0.0498,-0.0499,-0.0481,-0.048,-0.0479,-0.0477,-0.049,-0.049,-0.0489,0,0,-0.0485,-0.0501,-0.0492,-0.0491,-0.0489,-0.0484,-0.0488,-0.0517,-0.0537,-0.0543,-0.0551,-0.0548,-0.0545,-0.0521,-0.0504,-0.0508,-0.0511,-0.053,-0.0511,-0.0512,-0.051,-0.0508,-0.0531,-0.0531,-0.0529,-0.0529,-0.0529,0,-0.0482,-0.0486,-0.0487,-0.0477,-0.047,-0.0479,-0.0469,-0.048,-0.0503,-0.0509,-0.0547,-0.0553,-0.0542,-0.0488,-0.0504,-0.0506,-0.0521,-0.0495,-0.051,-0.0508,-0.0507,-0.053,-0.0531,-0.0528,-0.0528,-0.0528,-0.0528,0,-0.0477,-0.0476,-0.0468,-0.0454,-0.0443,-0.0425,-0.0433,-0.0442,-0.0479,-0.0497,-0.05,-0.0503,-0.0495,-0.0515,-0.0505,-0.0489,-0.051,-0.0511,-0.0493,-0.0503,-0.053,-0.053,-0.0528,-0.0528,-0.0528,-0.0528,0,0,-0.0457,-0.0458,-0.0457,-0.0445,-0.0424,-0.0404,-0.0398,-0.0379,-0.0364,-0.0425,-0.0419,-0.0427,-0.0449,-0.0433,-0.0438,-0.0453,-0.0471,-0.0483,-0.0483,-0.0487,-0.0495,-0.0495,-0.0496,-0.0477,-0.0476,-0.0476,-0.0527,0,-0.0443,-0.0419,-0.0419,-0.0385,-0.037,-0.0362,-0.0344,-0.033,-0.0337,-0.0336,-0.0358,-0.0344,-0.0408,-0.0392,-0.0422,-0.0443,-0.0469,-0.0459,-0.0501,-0.0502,-0.0483,-0.0494,-0.0465,-0.0505,-0.0527,-0.0527,-0.0527,0,-0.0427,-0.0407,-0.0384,-0.0336,-0.0329,-0.0303,-0.0245,-0.0228,-0.021,-0.022,-0.0224,-0.0244,-0.0253,-0.0313,-0.0377,-0.0372,-0.0433,-0.0476,-0.0478,-0.0475,-0.0501,-0.0496,-0.0505,-0.0528,-0.0528,-0.0528,-0.0528,0,-0.0392,-0.0366,-0.0338,-0.0333,-0.0291,-0.0269,-0.0231,-0.0199,-0.0159,-0.013,-0.0107,-0.0138,-0.0141,-0.0222,-0.0338,-0.0349,-0.0428,-0.0442,-0.0505,-0.0507,-0.0485,-0.0485,-0.0489,-0.0489,-0.0489,-0.0488,-0.0488,0,-0.0351,-0.0324,-0.0323,-0.0305,-0.0246,-0.0232,-0.0145,-0.0123,-0.0063,-0.0003,-0.0038,-0.0015,-0.0123,-0.019,-0.0302,-0.0412,-0.04,-0.0495,-0.051,-0.0484,-0.0483,-0.0499,-0.05,-0.049,-0.049,-0.049,-0.0489,0,-0.0308,-0.0316,-0.0278,-0.0248,-0.0228,-0.0185,-0.0082,-0.0008,0.0025,0.0104,0.012,0.0085,0.0003,-0.0123,-0.0248,-0.035,-0.0453,-0.0499,-0.0475,-0.0486,-0.0544,-0.0544,-0.0551,-0.0551,-0.0552,-0.0552,-0.0552,0,-0.0279,-0.0262,-0.0237,-0.02,-0.0181,-0.0106,-0.003,0.0031,0.0107,0.0153,0.0191,0.0141,0.0128,-0.0061,-0.0243,-0.0406,-0.0454,-0.0499,-0.05,-0.0532,-0.0546,-0.0546,-0.0545,-0.0486,-0.0485,-0.0485,-0.0485,0,-0.0211,-0.0218,-0.0192,-0.0121,-0.0056,0.0033,0.0126,0.0177,0.0247,0.031,0.0345,0.0344,0.0174,0.0026,-0.0201,-0.0326,-0.0464,-0.0495,-0.0521,-0.0468,-0.0473,-0.0486,-0.0487,-0.0482,-0.0482,-0.0482,-0.0482,-0.0482,-0.0151,-0.0129,-0.009,-0.0024,0.0063,0.0159,0.021,0.0321,0.0423,0.0512,0.0467,0.0497,0.0294,0.0051,-0.0179,-0.0423,-0.0424,-0.0502,-0.0503,-0.0503,-0.048,-0.0483,-0.0492,-0.0493,-0.0493,-0.0493,-0.0494,0,-0.0057,-0.0033,0.003,0.0103,0.0197,0.0233,0.0325,0.0395,0.0502,0.0614,0.0679,0.0535,0.0371,0.0129,-0.0215,-0.0421,-0.0443,-0.0492,-0.0475,-0.0477,-0.0479,-0.0454,-0.046,-0.046,-0.046,-0.0461,0,0,0.0008,0.0065,0.0075,0.0214,0.0274,0.0365,0.0392,0.0535,0.0626,0.075,0.0794,0.0805,0.0486,0.0253,-0.0051,-0.0253,-0.0313,-0.0292,-0.0298,-0.0245,-0.0244,-0.0467,-0.0428,0,0,0,0,0]}],[{"header":{"parameterUnit":"m.s-1","parameterCategory":2,"la1":30.2991,"la2":30.254,"lo1":-89.0895,"lo2":-89.0444,"dy":0.0017,"dx":0.0017,"nx":28,"ny":28,"refTime":"2023-10-20T21:00:00:Z","depth":"4","parameterNumber":2,"parameterNumberName":"U-component_of_CURRENTS"},"data":[0,0,0,0,0,0,0,0,0,0,0,0,0,0,0,0,0,0,0,0,0,0,0,0,0,0,0,0,0,0,0,0,0,0,0,0,0,0,0,0,0,0,0,0,0,0,0,0,0,0,0,0,0,0,0,0,0,0,0.08,0.0801,0,0.0842,0.0842,0.0842,0.0867,0.0868,0.0869,0.087,0.0925,0.0926,0.0926,0,0,0,0,0,0,0,0,0,0,0,0,0,0.0698,0.0699,0.08,0.0801,0.0802,0.0842,0.0842,0.0842,0.0867,0.0868,0.0869,0.087,0.0925,0.0926,0.0926,0,0,0,0,0,0,0,0,0,0,0,0,0,0.0733,0.07,0.0799,0.0826,0.083,0.0843,0.0842,0.0842,0.0866,0.0868,0.0869,0.0871,0.0925,0.0926,0.0927,0.0904,0,0,0.0929,0.093,0,0,0,0,0,0,0,0,0.0731,0.0735,0.0821,0.0825,0.0829,0.0859,0.0827,0.0866,0.0866,0.0843,0.087,0.0871,0.0909,0.0911,0.0903,0.0906,0.0909,0.0929,0.093,0.093,0.0931,0,0,0,0,0,0,0,0.0728,0.0734,0.0807,0.0823,0.0827,0.0823,0.0829,0.0834,0.086,0.0845,0.0849,0.0868,0.091,0.0902,0.0905,0.0909,0.0929,0.093,0.0931,0.0931,0.1008,0.101,0,0,0,0,0,0,0.0743,0.0732,0.0806,0.0809,0.0793,0.0825,0.0831,0.084,0.086,0.0867,0.0867,0.0869,0.09,0.0904,0.0907,0.0988,0.093,0.0931,0.0932,0.1007,0.1009,0.101,0,0,0,0,0,0,0.074,0.0748,0.0804,0.0779,0.0787,0.0826,0.0836,0.0841,0.0862,0.0879,0.0884,0.0889,0.0901,0.0906,0.0939,0.0986,0.0932,0.0932,0.1005,0.1007,0.101,0.1081,0,0,0,0,0,0,0.0737,0.0747,0.075,0.078,0.079,0.0828,0.0836,0.0841,0.0875,0.0879,0.0899,0.0904,0.0902,0.0938,0.094,0.0986,0.0933,0.1003,0.1006,0.1009,0.1077,0.1085,0.1093,0,0,0,0,0,0.0732,0.073,0.0749,0.0759,0.0795,0.083,0.0833,0.0859,0.0875,0.0883,0.0904,0.0905,0.0958,0.0939,0.0941,0.099,0.1002,0.1005,0.1009,0.1073,0.1084,0.1093,0,0,0,0,0,0,0.0697,0.0734,0.0756,0.0768,0.0809,0.0838,0.0851,0.0872,0.0892,0.0907,0.0914,0.0919,0.097,0.0964,0.0943,0.102,0.0984,0.0988,0.1032,0.1042,0.105,0.1069,0.0934,0,0,0,0,0,0.0691,0.0696,0.0745,0.0761,0.0784,0.0822,0.0839,0.0867,0.0896,0.0906,0.0928,0.0953,0.0978,0.0998,0.1012,0.1046,0.1038,0.1082,0.109,0.1097,0.1114,0.1133,0.1144,0.1022,0.1022,0.1021,0,0,0.0692,0.0708,0.0718,0.0754,0.0786,0.0821,0.0834,0.0879,0.0914,0.0909,0.096,0.098,0.0992,0.1037,0.106,0.1044,0.1125,0.1101,0.1107,0.1121,0.1137,0.1149,0.116,0.1024,0.1023,0.1023,0,0,0.0685,0.0708,0.0711,0.0754,0.0812,0.0831,0.0854,0.0907,0.0936,0.0986,0.0999,0.1056,0.108,0.1113,0.1128,0.1189,0.1164,0.119,0.1252,0.127,0.128,0.1289,0.1283,0.1291,0.1198,0.1198,0.1198,0,0.068,0.0705,0.0722,0.0753,0.08,0.0842,0.0885,0.0912,0.0972,0.1016,0.1017,0.1109,0.1125,0.1194,0.1221,0.1212,0.1198,0.1213,0.1281,0.1289,0.1297,0.1289,0.1297,0.1202,0.1201,0.1201,0.12,0,0.0695,0.0727,0.0744,0.0791,0.0828,0.0882,0.0939,0.0986,0.1032,0.1077,0.117,0.1198,0.1267,0.1276,0.1269,0.1344,0.1306,0.1284,0.1255,0.1314,0.1301,0.1308,0.1207,0.1206,0.1205,0.1204,0,0,0.0664,0.0734,0.0753,0.0791,0.0869,0.0906,0.097,0.1049,0.1109,0.1181,0.1251,0.1336,0.1382,0.1401,0.1411,0.1426,0.1473,0.1383,0.1382,0.1377,0.1488,0.1413,0.1412,0.1451,0.1453,0.1455,0.1453,0,0.0682,0.0734,0.0776,0.0856,0.089,0.0971,0.1021,0.1103,0.117,0.1238,0.1314,0.1385,0.1417,0.1458,0.1491,0.1482,0.1495,0.1474,0.1434,0.1433,0.1358,0.142,0.1461,0.1458,0.1459,0.146,0.1461,0,0.0697,0.0725,0.0794,0.0887,0.0917,0.098,0.1097,0.1152,0.1256,0.1316,0.1426,0.1463,0.1563,0.1533,0.1608,0.1588,0.1557,0.1528,0.1526,0.144,0.1371,0.1389,0.1473,0.1472,0.1471,0.147,0.1469,0,0.0661,0.0754,0.0805,0.0849,0.0943,0.1018,0.1086,0.1197,0.1276,0.1378,0.1441,0.1548,0.1616,0.1622,0.1639,0.1619,0.1644,0.161,0.1507,0.15,0.1534,0.1525,0.162,0.162,0.162,0.162,0.162,0,0.0665,0.0712,0.0807,0.0849,0.0911,0.1014,0.1128,0.1192,0.1335,0.14,0.1499,0.1549,0.1638,0.167,0.1645,0.1625,0.168,0.1536,0.1507,0.1561,0.1555,0.1538,0.1528,0.162,0.162,0.162,0.162,0,0.0616,0.0681,0.0722,0.0844,0.089,0.094,0.1147,0.1251,0.137,0.1448,0.149,0.1606,0.1646,0.1694,0.1687,0.165,0.1608,0.1562,0.1623,0.1593,0.144,0.1434,0.1464,0.1461,0.1459,0.1458,0.1456,0,0.0588,0.06,0.0699,0.0759,0.0832,0.0957,0.1063,0.1228,0.1323,0.1447,0.1458,0.1558,0.1598,0.156,0.1605,0.1585,0.1548,0.1525,0.1491,0.1462,0.143,0.1428,0.1425,0.1453,0.1452,0.1452,0.1451,0,0.0505,0.0542,0.0602,0.0714,0.0828,0.0918,0.1072,0.1134,0.1282,0.1406,0.1405,0.1427,0.1453,0.1482,0.1496,0.146,0.1554,0.1503,0.1506,0.1474,0.1449,0.1419,0.1419,0.1444,0.1445,0.1446,0.1446,0,0.0446,0.0456,0.0562,0.0663,0.0791,0.0859,0.0936,0.106,0.1144,0.1278,0.1254,0.132,0.1406,0.1412,0.1404,0.141,0.138,0.1323,0.1335,0.1344,0.1312,0.1262,0.1192,0,0,0,0,0,0.0376,0.0425,0.0534,0.0634,0.0784,0.0834,0.095,0.1038,0.1143,0.1115,0.1195,0.1193,0.1221,0.1267,0.1249,0.1358,0.139,0.1332,0.1331,0.1405,0.1413,0.139,0,0,0,0,0,0,0.0341,0.0418,0.0496,0.0612,0.0709,0.0816,0.0864,0.0926,0.0916,0.1025,0.105,0.1134,0.1187,0.1228,0.1233,0.125,0.1225,0.1396,0.1393,0.14,0.1408,0.1414,0.1394,0,0,0,0,0]},{"header":{"parameterUnit":"m.s-1","parameterCategory":2,"la1":30.2991,"la2":30.254,"lo1":-89.0895,"lo2":-89.0444,"dy":0.0017,"dx":0.0017,"nx":28,"ny":28,"refTime":"2023-10-20T21:00:00:Z","depth":"4","parameterNumber":3,"parameterNumberName":"V-component_of_CURRENTS"},"data":[0,0,0,0,0,0,0,0,0,0,0,0,0,0,0,0,0,0,0,0,0,0,0,0,0,0,0,0,0,0,0,0,0,0,0,0,0,0,0,0,0,0,0,0,0,0,0,0,0,0,0,0,0,0,0,0,0,0,0.0368,0.0368,0,0.0339,0.0339,0.0338,0.0344,0.0344,0.0344,0.0345,0.0315,0.0314,0.0313,0,0,0,0,0,0,0,0,0,0,0,0,0,0.0382,0.0382,0.0369,0.0368,0.0367,0.0339,0.0339,0.0338,0.0344,0.0344,0.0344,0.0345,0.0316,0.0314,0.0313,0,0,0,0,0,0,0,0,0,0,0,0,0,0.0368,0.0382,0.0369,0.0365,0.0365,0.0339,0.0339,0.0338,0.0343,0.0344,0.0345,0.0345,0.0316,0.0314,0.0313,0.0291,0,0,0.0308,0.0307,0,0,0,0,0,0,0,0,0.0369,0.0368,0.0366,0.0365,0.0365,0.0344,0.0332,0.0322,0.0343,0.0353,0.0345,0.0345,0.0323,0.0321,0.0317,0.029,0.0289,0.0307,0.0306,0.0306,0.0305,0,0,0,0,0,0,0,0.037,0.0369,0.0359,0.0366,0.0365,0.0349,0.0348,0.033,0.0337,0.0352,0.0352,0.0346,0.0323,0.0318,0.0316,0.0288,0.0307,0.0306,0.0305,0.0304,0.0281,0.0281,0,0,0,0,0,0,0.0372,0.037,0.0359,0.0357,0.0366,0.0348,0.0347,0.0351,0.0337,0.0335,0.0346,0.0346,0.0321,0.0318,0.0315,0.0324,0.0306,0.0304,0.0303,0.0281,0.0281,0.0281,0,0,0,0,0,0,0.0373,0.0372,0.0361,0.0361,0.0358,0.0348,0.0352,0.0351,0.0355,0.0332,0.033,0.0352,0.0321,0.0317,0.0321,0.0322,0.0303,0.0302,0.028,0.0281,0.0281,0.032,0,0,0,0,0,0,0.0373,0.0373,0.0386,0.0362,0.0358,0.0359,0.0351,0.035,0.0348,0.0349,0.0336,0.0333,0.0321,0.0324,0.0319,0.0319,0.03,0.028,0.028,0.0281,0.0318,0.0322,0.0325,0,0,0,0,0,0.0374,0.0388,0.0388,0.0387,0.0375,0.0359,0.0356,0.0351,0.0348,0.0356,0.0353,0.0334,0.0325,0.0323,0.0317,0.0317,0.0279,0.028,0.0281,0.0317,0.0321,0.0325,0,0,0,0,0,0,0.0393,0.0389,0.0388,0.0398,0.0386,0.0359,0.0366,0.0355,0.0357,0.0363,0.0342,0.034,0.0341,0.0325,0.0324,0.0313,0.0297,0.0297,0.0326,0.033,0.0333,0.0326,0.0299,0,0,0,0,0,0.0404,0.0421,0.0402,0.041,0.0408,0.0388,0.0383,0.0376,0.0367,0.0369,0.036,0.035,0.0337,0.0333,0.0323,0.0317,0.0269,0.0312,0.0316,0.0319,0.0309,0.0228,0.0223,0.0284,0.0284,0.0284,0,0,0.0411,0.0412,0.042,0.0416,0.0408,0.0408,0.0388,0.0385,0.0389,0.0364,0.0378,0.0362,0.0339,0.0338,0.0336,0.0328,0.0281,0.032,0.0323,0.0311,0.0228,0.0222,0.0216,0.0285,0.0285,0.0285,0,0,0.0428,0.0436,0.0455,0.0452,0.0445,0.043,0.0431,0.0414,0.0417,0.0423,0.0403,0.0388,0.0382,0.0358,0.0345,0.0357,0.0301,0.0357,0.0366,0.0288,0.0282,0.0275,0.0224,0.0212,0.0358,0.0358,0.0358,0,0.0442,0.0457,0.0455,0.0467,0.0464,0.0442,0.0447,0.0446,0.0435,0.0425,0.0439,0.0395,0.0387,0.035,0.0367,0.0362,0.0316,0.0354,0.029,0.0283,0.0276,0.0224,0.0211,0.036,0.036,0.036,0.036,0,0.0464,0.0481,0.0489,0.0502,0.0499,0.05,0.049,0.0491,0.049,0.0471,0.0448,0.043,0.0392,0.0395,0.0393,0.0337,0.0321,0.0303,0.0277,0.0271,0.0218,0.0204,0.0363,0.0362,0.0362,0.0361,0,0,0.0483,0.0503,0.051,0.0519,0.0517,0.0513,0.0521,0.0503,0.0482,0.0485,0.0446,0.0444,0.0409,0.0391,0.0367,0.0319,0.0252,0.03,0.0295,0.0244,0.0089,0.0114,0.0101,0.0215,0.0212,0.021,0.0078,0,0.0501,0.0532,0.0534,0.0553,0.0561,0.0547,0.0544,0.0527,0.0505,0.0466,0.0433,0.0394,0.0413,0.0383,0.0339,0.0264,0.0212,0.029,0.0106,0.0101,0.0118,0.0084,0.0202,0.0067,0.0064,0.0061,0.0059,0,0.0522,0.054,0.0565,0.0567,0.0568,0.0575,0.0543,0.0536,0.0477,0.0454,0.0402,0.036,0.0298,0.0308,0.0177,0.0223,0.0162,0.0113,0.0105,0.01,0.0098,0.0069,0.0033,0.0035,0.0037,0.0038,0.004,0,0.0528,0.0558,0.0578,0.0585,0.0584,0.0589,0.058,0.0532,0.051,0.043,0.039,0.0303,0.0259,0.0162,0.0105,0.0116,-0.0042,-0.0053,-0.009,-0.0088,-0.0089,-0.0081,-0.0165,-0.0165,-0.0164,-0.0164,-0.0164,0,0.0538,0.0555,0.0589,0.06,0.0599,0.0602,0.0572,0.0545,0.049,0.045,0.0379,0.033,0.0219,0.0133,0.0065,-0.0042,-0.0081,-0.0103,-0.0132,-0.0064,-0.0052,-0.0098,-0.0089,-0.0169,-0.0168,-0.0167,-0.0166,0,0.0531,0.0557,0.0576,0.0598,0.0602,0.06,0.058,0.0546,0.0506,0.0446,0.0422,0.0332,0.0222,0.0119,-0.0037,-0.0084,-0.0198,-0.0224,-0.0126,-0.0144,-0.0188,-0.0175,-0.0322,-0.0322,-0.0322,-0.0323,-0.0323,0,0.0518,0.0532,0.0572,0.0579,0.0592,0.0592,0.0572,0.0546,0.0515,0.046,0.0429,0.0326,0.026,0.0063,-0.0043,-0.0211,-0.0213,-0.0282,-0.0251,-0.0197,-0.021,-0.0196,-0.0183,-0.0324,-0.0324,-0.0324,-0.0324,0,0.0484,0.0512,0.0537,0.0543,0.0545,0.0539,0.0532,0.0519,0.0491,0.0467,0.0424,0.0331,0.021,0.0072,-0.0048,-0.0158,-0.0253,-0.0287,-0.0287,-0.0259,-0.0201,-0.0211,-0.0197,-0.0325,-0.0325,-0.0325,-0.0325,0,0.0451,0.0458,0.0487,0.048,0.0484,0.0476,0.0492,0.0479,0.0454,0.0434,0.0432,0.0322,0.027,0.01,-0.0008,-0.0121,-0.0157,-0.0195,-0.0201,-0.0201,-0.0111,-0.0016,-0.0125,0,0,0,0,0,0.0402,0.0398,0.0406,0.0402,0.0413,0.0413,0.0439,0.0461,0.0465,0.0441,0.0444,0.0348,0.0192,0.0121,0.0008,-0.0045,-0.0199,-0.0184,-0.025,-0.0333,-0.0331,-0.0242,0,0,0,0,0,0,0.0364,0.0381,0.038,0.0322,0.0317,0.0313,0.034,0.0376,0.037,0.0393,0.0315,0.0305,0.0148,0.0249,-0.0003,-0.0037,-0.0096,-0.0251,-0.0253,-0.0334,-0.0332,-0.0331,-0.0239,0,0,0,0,0]}]]